Location: *
(57.8420°S, 159.8600°W)
Time: 03:20:19
(UTC+00:00)

NOSS 3-2 (C) - Pass Details

Date: 18 May 2021
Orbit: 781 x 1431 km, 63.4° (Epoch: 14 June)

Event Time Altitude Azimuth Distance (km) Brightness Sun altitude
Rises 03:54:13 0° 304° (NW) 4,408 8.7 -11.1°
Reaches altitude 10° 03:57:15 10° 303° (WNW) 3,374 7.7 -11.5°
Maximum altitude 04:05:29 86° 213° (SSW) 1,217 4.0 -12.6°
Enters shadow 04:11:25 16° 123° (ESE) 2,528 5.1 -13.3°
